Location: Triton
(47.6048°N, 122.9899°W)
Time: 17:14:53
(UTC+00:00)

Tiangong - Visible Passes

Search period start: 14 February 2026 00:00
Search period end: 24 February 2026 00:00
Orbit: 386 x 392 km, 41.5° (Epoch: 13 February)

Date Brightness Start Highest point End Pass type
(mag) Time Alt. Az. Time Alt. Az. Time Alt. Az.
14 Feb -0.2 02:33:00 10° SW 02:35:23 20° SSE 02:37:15 13° ESE visible
14 Feb 0.9 04:09:04 10° WSW 04:09:33 13° WSW 04:09:33 13° WSW visible
15 Feb -0.7 03:10:54 10° SW 03:13:38 26° S 03:14:04 25° SSE visible
16 Feb -0.4 02:12:47 10° SW 02:15:26 24° S 02:18:04 10° ESE visible
16 Feb 0.1 03:49:14 10° WSW 03:50:52 20° SW 03:50:52 20° SW visible
17 Feb -0.5 02:50:55 10° WSW 02:53:39 26° S 02:55:20 17° SE visible
18 Feb -0.1 03:29:23 10° WSW 03:31:48 20° SSW 03:32:07 20° S visible
19 Feb -0.2 02:30:55 10° WSW 02:33:32 24° S 02:36:10 10° SE visible
20 Feb 0.5 03:09:40 10° WSW 03:11:34 15° SSW 03:13:28 10° SSE visible
21 Feb 0.3 02:10:55 10° WSW 02:13:17 19° SSW 02:15:39 10° SSE visible
22 Feb 1.0 02:50:50 10° SSW 02:51:10 10° SSW 02:51:30 10° SSW visible
